RH
29 28 23 29 24 20 20 19 22 25 24 18 18 19 19 17 17 25 40 50 34 58 73 41 78 85 69 79 89 78 75 75 67 59 93 86 87 84 73 82 84 97 98 58 69 86 90 85 84
30 28 27 23 19 22 17 16 21 23 20 19 19 19 18 16 18 31 41 36 39 58 75 92 78 74 83 83 77 69 67 68 66 59 95 87 86 87 90 87 89 86 72 64 48 40 60 83 88
38 30 24 24 21 22 24 20 22 18 20 20 20 18 16 17 21 28 40 24 43 59 67 81 79 92 86 84 76 75 67 64 54 54 85 85 86 89 84 89 96 86 84 65 58 41 30 41 73
35 26 24 27 24 15 19 20 17 18 20 20 20 19 17 26 28 42 38 32 55 60 69 35 90 83 74 75 83 77 72 74 55 44 81 83 85 92 82 89 89 93 86 60 52 55 51 46 41
35 26 27 28 27 22 11 12 17 19 20 20 22 21 20 30 35 42 50 50 52 59 71 30 57 62 72 79 79 74 75 68 72 48 71 84 81 92 87 84 87 93 86 74 58 65 84 86 84
34 27 30 28 25 23 19 16 16 17 19 19 20 21 23 31 35 42 43 53 55 63 71 58 41 60 63 68 88 81 83 83 81 53 48 78 79 82 96 83 93 88 92 92 75 58 78 87 84
35 31 33 25 23 25 21 17 14 18 20 19 21 20 21 28 34 27 56 55 58 66 58 79 44 60 68 86 90 87 86 88 81 65 44 43 80 85 86 77 77 67 70 70 42 34 34 44 56
39 31 36 29 28 26 20 20 18 22 21 22 21 19 19 26 33 20 42 61 64 59 56 75 82 87 86 90 67 74 87 86 67 55 31 26 41 54 52 56 54 41 37 39 39 41 41 43 44
43 38 38 30 28 25 21 23 23 27 26 23 21 21 21 26 29 38 49 56 65 57 60 66 75 84 86 87 90 63 61 62 42 39 32 20 41 84 73 61 32 35 38 42 45 46 46 45 44
42 40 34 24 22 24 22 24 27 28 24 22 22 20 21 22 23 25 30 35 53 63 66 76 73 83 87 87 90 90 92 92 86 91 86 83 77 80 37 38 45 49 51 53 53 53 51 51 56
42 41 28 26 24 26 26 27 27 29 30 25 22 21 22 24 23 22 24 26 37 50 59 58 77 82 87 89 90 86 88 89 84 85 86 86 69 81 83 81 75 64 65 65 84 81 87 92 90
42 35 32 27 28 32 31 29 28 30 29 28 29 28 27 26 21 21 21 25 35 47 55 62 50 50 83 88 76 85 86 86 83 85 87 88 87 91 92 93 97 92 97 97 97 98 98 97 95
43 34 31 32 30 32 34 32 32 32 30 29 27 26 27 27 23 21 24 36 39 47 55 59 61 66 64 70 90 89 86 84 84 91 94 95 96 96 97 97 98 99 99 99 100 98 95 93 93
45 37 34 32 33 32 34 32 31 30 30 27 24 21 23 23 26 29 32 37 45 48 56 57 56 63 77 84 90 92 89 87 91 94 97 94 92 93 92 98 100 99 99 99 98 97 98 97 92
46 45 37 33 32 30 33 37 33 30 27 20 18 18 22 31 36 35 41 43 43 46 34 29 27 44 74 86 93 92 94 91 96 97 97 93 94 98 99 100 99 97 97 97 94 91 91 87 85
51 57 62 38 33 31 36 45 25 23 20 19 20 23 30 38 38 43 46 46 38 39 32 23 22 28 65 82 93 89 92 94 97 96 97 99 96 82 97 99 95 86 84 79 77 70 67 69 70
78 76 66 46 30 32 36 38 24 23 20 20 19 20 28 36 40 46 46 41 32 30 28 25 36 52 74 86 90 92 92 92 98 99 98 90 78 78 77 59 47 55 57 54 52 53 57 57 56
77 72 53 56 33 34 36 36 27 21 22 21 19 22 29 34 42 47 48 44 42 49 38 36 48 69 82 86 90 94 90 79 72 70 67 59 44 34 33 34 33 36 47 53 48 56 60 57 58
55 62 49 42 31 33 37 33 26 23 23 23 21 25 30 36 45 49 48 49 51 60 66 65 70 78 82 86 84 77 72 71 67 58 40 34 33 30 32 38 40 40 39 51 46 48 42 45 51
63 56 45 42 33 34 32 32 26 25 25 24 21 24 30 38 41 47 47 47 48 54 51 56 68 82 78 73 75 72 69 61 42 38 34 30 34 39 40 39 34 30 28 33 24 28 23 40 39
58 64 53 45 36 34 35 41 35 28 24 24 22 25 31 34 40 44 46 49 50 36 29 29 33 41 50 56 55 52 51 56 44 34 33 38 41 40 34 30 26 23 20 14 10 24 32 45 44
82 56 37 41 44 49 36 39 25 25 24 23 23 27 32 35 38 43 46 50 44 31 30 30 31 35 49 53 51 50 44 32 32 36 42 44 38 35 32 29 28 20 11 7 6 16 18 42 43
81 57 40 45 47 57 52 48 30 23 24 25 23 29 34 38 42 46 50 52 39 33 33 34 33 34 34 33 32 32 32 33 39 44 42 39 39 38 34 30 25 13 6 5 7 9 12 31 46
63 56 55 48 46 59 38 41 28 26 23 21 24 31 37 40 45 49 54 54 38 36 36 36 36 35 36 36 35 35 36 40 42 41 43 45 40 37 35 32 15 6 5 6 8 10 15 30 44
72 79 82 70 67 50 31 37 29 20 19 18 25 31 37 42 46 50 54 57 49 40 40 40 39 40 39 38 38 37 38 40 43 45 50 46 43 39 37 23 10 6 6 8 10 11 18 33 39
80 69 48 58 54 41 35 43 28 20 19 19 26 31 36 42 45 50 52 57 63 48 44 44 43 42 39 38 38 39 42 44 48 52 51 46 42 36 25 14 8 7 8 9 12 16 30 33 32
83 75 39 40 35 38 38 29 23 22 24 21 25 31 36 41 45 48 54 59 65 53 49 47 46 42 40 39 40 44 47 51 55 52 49 45 37 30 19 10 7 8 10 12 17 24 27 31 30
72 42 54 43 51 46 36 30 29 26 25 24 23 30 35 40 44 49 54 59 63 57 48 49 48 45 42 41 45 48 53 56 54 52 48 41 32 25 12 8 8 9 12 19 25 26 28 32 34
83 68 48 34 36 39 40 33 22 22 22 24 24 27 34 41 45 49 53 60 64 52 50 50 50 48 44 44 48 52 56 57 55 50 43 35 23 15 9 8 9 11 20 26 27 29 31 34 35
59 60 41 43 50 37 36 33 20 20 23 23 23 27 33 41 44 48 53 64 62 55 54 53 52 50 46 45 49 55 59 58 52 48 38 24 15 10 8 9 12 21 26 28 30 32 34 33 36
Wind_Speed
13 16 16 5 5 5 10 6 4 4 3 5 11 9 10 11 8 4 1 2 3 5 6 5 9 8 8 6 6 5 7 6 6 3 3 0 5 8 6 2 4 4 4 8 3 8 8 5 6
12 13 10 3 6 8 9 6 10 2 10 14 9 6 6 3 5 5 3 1 4 6 7 8 7 8 6 5 5 5 5 5 4 1 2 2 3 3 6 4 6 6 10 11 6 7 11 8 7
13 10 9 4 3 9 7 3 7 11 12 7 6 3 5 7 6 3 2 1 5 7 7 10 6 8 7 6 5 3 4 4 4 3 5 3 3 2 5 7 6 8 11 12 9 7 6 5 8
8 7 7 8 10 4 8 8 8 10 8 5 9 10 3 6 2 3 2 3 7 6 7 3 10 9 8 6 4 5 5 5 3 2 7 2 2 4 4 9 7 9 11 11 9 7 7 7 7
8 10 9 10 10 5 7 8 6 8 9 11 7 5 5 6 5 2 3 4 6 7 6 2 9 9 8 6 7 6 4 4 3 1 6 5 5 5 5 7 11 8 10 11 12 8 7 10 11
9 8 11 11 12 5 7 7 8 10 8 10 6 10 2 8 6 3 2 3 5 7 7 4 5 7 6 5 5 4 3 4 4 3 5 6 6 6 6 9 9 11 9 10 11 11 5 7 10
13 10 15 16 13 9 9 2 10 7 12 7 8 7 6 6 10 7 1 4 5 7 6 7 3 4 6 7 6 5 5 4 6 6 3 4 7 6 7 9 9 7 9 11 13 12 11 10 10
12 11 19 16 12 16 5 4 6 11 12 9 6 5 1 8 8 9 1 4 6 7 6 8 8 6 4 3 3 6 7 8 5 5 3 0 3 3 6 7 9 9 10 10 11 10 10 10 10
11 11 14 19 16 11 5 9 8 8 15 14 13 13 7 8 6 7 4 5 7 8 9 9 8 8 8 7 9 8 5 6 2 3 2 0 1 4 7 7 6 8 9 10 10 11 12 12 13
15 13 21 16 13 11 12 9 12 11 15 15 15 13 9 8 9 9 6 7 9 10 10 10 10 8 8 7 7 4 5 4 2 3 3 2 3 4 5 5 6 7 8 10 10 12 14 15 15
22 20 17 20 14 15 15 14 17 13 15 17 11 13 14 14 14 9 8 7 9 11 11 11 10 9 10 8 6 6 6 5 5 6 4 3 3 3 5 5 7 10 11 13 13 15 15 13 16
24 25 28 23 15 13 15 17 19 19 20 20 19 20 20 16 12 11 10 8 8 10 11 10 10 10 11 9 8 7 6 5 5 4 4 3 3 5 5 6 7 9 8 11 12 13 14 17 18
24 24 26 25 20 17 16 19 19 25 24 22 20 18 19 17 14 12 10 7 6 8 9 10 10 12 11 11 8 7 6 5 5 4 4 4 4 5 6 8 8 9 10 12 13 14 15 17 18
16 31 28 20 25 22 17 20 20 23 22 20 18 18 16 15 13 12 9 5 5 6 7 8 10 12 11 10 10 7 6 5 5 4 4 6 6 7 8 8 8 10 10 12 15 16 18 17 18
31 17 21 25 22 19 17 20 21 25 23 15 14 11 8 10 9 7 8 5 6 4 6 7 9 12 12 10 9 7 5 5 3 2 3 5 6 7 7 7 9 10 13 13 14 14 14 15 16
23 19 16 20 24 24 14 19 14 5 7 6 4 3 4 5 4 4 6 5 5 3 2 3 5 7 11 10 8 6 4 3 1 2 3 3 4 6 6 7 9 11 10 11 12 15 17 18 19
15 18 25 20 22 19 19 15 18 11 11 13 14 8 5 3 3 2 3 5 6 5 4 4 5 6 10 11 9 7 6 6 6 6 6 5 5 6 6 7 10 10 11 12 15 16 16 19 20
19 24 19 24 19 15 18 20 18 16 10 11 11 7 7 6 4 5 7 9 10 10 9 10 10 11 12 12 11 10 9 9 8 8 7 7 9 9 10 11 13 15 15 16 19 18 18 20 20
21 20 24 17 21 19 17 19 18 19 16 12 10 10 10 9 8 8 11 12 14 14 15 14 14 14 12 12 12 11 10 9 9 9 9 9 10 11 13 14 16 18 18 17 19 18 21 21 19
19 20 26 11 16 10 14 18 18 14 18 16 16 14 14 13 12 12 13 15 15 16 16 15 15 14 13 13 14 13 12 12 12 11 10 10 11 13 16 18 19 20 20 18 20 21 22 18 19
28 23 21 14 13 11 11 17 19 21 12 10 14 16 16 16 16 16 16 16 16 18 18 16 16 17 16 16 15 15 14 12 10 10 10 11 13 16 19 21 20 19 18 18 19 19 18 18 18
26 20 16 12 12 9 13 5 12 14 13 10 15 19 19 18 17 17 18 17 18 20 18 16 16 16 16 14 14 13 11 10 10 9 10 12 16 20 22 22 20 19 17 18 18 18 19 17 18
17 27 17 15 9 3 13 6 15 14 15 11 15 21 21 19 19 19 18 18 19 19 18 16 15 15 15 13 12 11 10 9 8 9 12 14 18 23 24 24 21 19 18 18 19 20 20 18 17
3 12 10 11 6 7 13 12 9 12 14 16 17 22 23 22 20 18 17 18 19 19 17 15 14 14 13 11 11 9 9 8 8 11 13 15 18 21 24 22 20 18 18 18 19 20 19 19 18
18 16 6 6 7 7 6 10 13 8 5 8 17 25 25 23 22 20 18 17 17 17 16 14 13 13 11 9 7 5 4 5 6 8 11 15 18 21 22 21 19 18 18 19 20 21 21 19 19
19 20 8 9 10 12 7 7 4 7 3 11 23 26 26 24 21 19 18 16 16 16 14 13 12 11 10 7 4 2 1 2 5 8 12 15 18 19 20 18 17 17 18 19 20 22 18 18 24
10 21 2 6 7 9 8 9 8 6 7 10 20 26 28 25 22 20 18 16 15 15 14 13 11 10 8 6 4 2 1 4 7 11 14 16 18 18 18 17 17 17 19 21 22 23 25 24 26
7 10 5 2 7 6 7 7 6 10 8 11 15 25 27 25 22 21 18 16 14 15 15 13 12 10 9 6 4 2 3 6 9 12 15 17 17 18 17 16 17 19 21 23 24 26 26 25 24
3 7 5 4 2 3 6 5 11 6 4 9 14 25 28 27 24 22 19 16 15 15 15 14 12 11 9 7 5 5 6 8 10 13 16 17 17 17 17 18 20 22 24 23 25 26 25 23 27
14 10 14 6 5 4 5 5 7 7 6 5 13 21 26 25 24 22 19 17 16 16 16 14 13 12 10 8 7 7 8 10 12 15 17 17 16 17 18 20 22 23 24 26 27 26 24 26 29
Wind_Direction
329 338 341 306 261 240 235 210 351 204 195 352 305 289 323 303 347 24 62 117 57 131 162 156 164 175 192 224 217 270 294 307 324 23 141 113 245 286 291 323 262 305 338 350 247 202 202 225 249
328 339 318 302 268 238 228 186 212 29 331 317 298 260 248 62 55 85 89 301 94 137 152 159 171 161 188 195 253 285 296 303 326 131 162 196 233 335 340 290 290 326 330 329 314 266 261 230 242
320 312 289 287 228 273 335 151 10 320 306 317 294 263 311 53 50 71 102 158 111 135 142 192 183 178 191 216 245 299 321 321 324 200 172 180 211 254 318 328 305 321 336 342 334 327 299 299 247
313 270 242 242 262 251 267 301 328 312 314 322 313 280 147 45 50 60 97 108 126 139 145 222 183 194 202 215 249 283 323 337 347 160 171 188 262 252 285 308 307 311 330 345 341 338 346 343 312
277 265 255 245 258 255 263 274 279 303 300 310 328 295 335 39 14 39 126 133 145 148 154 188 178 194 188 217 256 287 302 347 19 173 182 186 234 247 248 292 314 313 315 340 343 333 341 341 338
262 257 258 251 242 198 263 284 266 268 294 297 283 320 60 54 39 333 169 161 157 164 157 191 156 167 181 204 240 253 274 323 324 16 209 193 210 252 236 273 292 298 331 327 333 326 310 303 312
246 260 256 262 273 262 270 280 265 302 284 273 321 276 119 50 17 14 170 173 172 176 166 169 171 180 182 183 213 240 268 262 309 317 311 221 207 239 261 263 283 309 318 320 333 337 338 315 304
253 250 257 253 256 257 232 260 269 278 286 317 281 263 150 13 350 357 290 198 196 193 190 180 171 199 216 219 251 239 229 241 259 294 320 294 199 252 269 283 300 321 322 324 332 331 332 324 323
227 243 242 244 242 252 228 257 270 284 274 275 268 272 295 336 335 346 318 252 216 219 202 193 191 185 191 197 262 264 230 243 231 262 18 221 49 280 289 293 311 319 322 323 323 325 323 317 311
221 226 240 249 261 247 271 253 285 287 279 273 275 260 262 287 303 295 279 265 239 226 214 207 202 199 198 207 220 255 243 257 303 268 267 287 248 252 290 315 336 334 322 320 314 314 313 310 319
222 238 242 246 251 261 269 272 272 277 274 272 279 283 284 289 286 282 268 284 239 221 215 214 212 209 210 210 210 214 208 220 217 224 238 256 289 307 309 311 328 323 320 329 318 317 316 298 293
227 236 242 256 239 239 254 269 277 268 272 282 276 277 281 278 267 272 277 277 245 214 214 221 220 220 216 211 222 207 207 208 205 224 234 253 282 297 303 303 304 317 318 306 312 307 302 301 303
234 235 238 242 242 242 258 263 267 272 275 276 276 274 269 263 263 268 273 269 233 220 226 226 227 226 221 214 208 206 202 219 215 225 240 256 285 292 297 301 307 311 310 315 305 306 305 301 297
227 236 241 226 237 242 250 263 266 266 276 280 284 274 260 251 258 262 256 250 236 227 230 231 231 224 218 208 199 197 203 200 218 217 258 267 285 298 309 317 316 315 314 308 312 309 309 307 304
229 233 228 242 232 245 247 263 258 264 266 281 268 263 256 248 251 244 235 227 211 222 238 240 236 221 208 199 190 189 201 194 204 221 268 302 309 304 308 324 326 315 330 331 324 320 318 319 316
227 243 240 222 231 237 229 257 258 199 206 254 248 250 244 246 230 234 227 200 194 177 223 245 241 224 192 180 175 166 178 147 128 71 44 338 313 315 352 356 353 354 351 348 341 339 334 327 324
227 229 218 232 220 218 209 256 241 231 227 268 259 232 231 194 141 137 152 156 153 142 117 96 110 131 149 154 149 148 117 100 82 77 67 52 39 39 40 26 14 9 353 351 342 336 329 323 325
222 214 211 224 218 216 229 237 253 221 253 264 256 207 198 175 146 120 110 118 114 105 104 102 102 110 120 125 123 117 117 114 109 94 79 58 46 42 31 14 3 359 350 342 341 338 331 329 322
217 201 215 218 222 219 227 241 239 234 246 237 233 203 182 161 136 117 110 107 106 102 99 95 100 103 113 122 125 123 115 108 98 88 77 62 39 25 16 4 353 349 349 344 343 341 334 338 328
225 216 211 201 159 204 229 236 241 236 243 241 218 204 182 159 141 125 117 112 106 102 100 101 104 107 113 124 128 122 113 100 90 78 61 45 29 12 1 357 353 348 348 344 346 343 344 339 343
224 214 229 190 185 214 252 261 252 244 242 218 223 195 179 168 152 138 129 120 112 108 106 104 105 106 107 107 105 101 94 89 78 62 39 24 10 3 358 354 353 352 354 351 352 349 351 341 342
220 222 214 165 191 215 194 278 196 172 189 189 189 182 176 165 154 144 135 125 121 115 112 110 111 112 111 117 117 118 106 86 67 46 26 8 2 359 356 352 352 352 354 350 352 346 348 343 336
227 202 178 187 193 260 213 240 254 183 193 195 193 179 174 169 160 151 141 133 128 124 121 118 120 121 117 112 108 103 93 80 58 34 19 9 358 352 349 346 346 343 342 341 341 340 341 339 326
197 179 144 172 187 225 233 209 255 189 209 191 185 180 175 171 164 156 147 140 136 133 130 128 130 124 119 114 105 92 78 63 32 16 9 3 352 345 338 333 331 331 330 331 333 335 333 331 319
162 189 154 161 191 215 177 205 245 111 130 172 179 177 176 173 168 164 155 149 144 143 139 138 138 135 131 122 106 85 56 26 8 0 351 347 341 331 323 321 322 323 324 328 330 329 329 322 311
170 196 160 167 186 191 144 221 213 94 129 176 179 178 175 176 175 171 163 155 151 149 150 152 153 151 147 145 143 132 48 354 338 335 337 336 330 322 318 318 319 322 324 324 324 324 319 314 309
205 223 61 111 39 148 167 223 157 166 156 174 175 176 179 179 179 174 168 163 157 158 161 168 171 171 172 176 179 192 291 324 329 332 334 331 324 321 319 318 319 320 320 320 321 320 320 312 312
229 184 167 216 154 178 158 189 129 167 154 178 188 183 182 181 179 177 173 167 162 169 178 182 188 192 196 199 208 247 300 320 327 331 330 328 323 316 315 316 317 318 318 319 319 321 315 307 304
212 196 220 218 333 213 162 165 87 96 121 169 193 186 184 182 180 180 177 173 172 183 190 197 202 206 209 214 229 260 294 313 323 327 329 325 320 317 317 316 316 317 318 316 315 314 310 303 302
170 211 217 203 153 264 339 112 130 93 101 162 174 184 184 183 182 180 178 177 183 190 198 204 209 214 219 226 241 266 292 308 317 326 327 323 317 315 315 314 315 319 315 313 314 311 307 303 305